TimeCET,TemperatureF,Dew PointF,Humidity,Sea Level PressureIn,VisibilityMPH,Wind Direction,Wind SpeedMPH,Gust SpeedMPH,PrecipitationIn,Events,Conditions,WindDirDegrees,DateUTC
12:00 AM,28,15,44,29.78,,WSW,6.9,,,,,250,2013-02-23 23:00:00
1:00 AM,28,15,44,29.77,9,SW,6.9,,,,Mostly Cloudy,220,2013-02-24 00:00:00
2:00 AM,28,15,44,29.78,,SW,4.6,,,,,220,2013-02-24 01:00:00
3:00 AM,28,14,41,29.79,,WSW,3.5,,,,,240,2013-02-24 02:00:00
5:00 AM,27,18,57,29.80,,West,9.2,,,,,260,2013-02-24 04:00:00
6:00 AM,25,17,62,29.82,,West,11.5,,,,,270,2013-02-24 05:00:00
7:00 AM,25,17,61,29.83,9,WSW,6.9,,,,Partly Cloudy,250,2013-02-24 06:00:00
7:20 AM,24.8,17.6,74,29.71,5.0,WSW,5.8,-,N/A,,Mostly Cloudy,240,2013-02-24 06:20:00
7:50 AM,24.8,17.6,74,29.74,5.0,Variable,2.3,-,N/A,,Mostly Cloudy,0,2013-02-24 06:50:00
8:00 AM,26,17,58,29.84,,West,3.5,,,,,260,2013-02-24 07:00:00
8:20 AM,24.8,17.6,74,29.74,5.0,Variable,3.5,-,N/A,,Mostly Cloudy,0,2013-02-24 07:20:00
8:50 AM,26.6,17.6,69,29.74,5.0,Variable,2.3,-,N/A,,Mostly Cloudy,0,2013-02-24 07:50:00
9:20 AM,26.6,17.6,69,29.77,5.0,Variable,1.2,-,N/A,,Mostly Cloudy,0,2013-02-24 08:20:00
9:50 AM,26.6,17.6,69,29.77,5.0,Variable,2.3,-,N/A,,Mostly Cloudy,0,2013-02-24 08:50:00
10:20 AM,28.4,15.8,59,29.77,5.0,Variable,1.2,-,N/A,,Scattered Clouds,0,2013-02-24 09:20:00
10:50 AM,28.4,17.6,64,29.77,5.6,Variable,2.3,-,N/A,,Scattered Clouds,0,2013-02-24 09:50:00
11:00 AM,29,17,47,29.85,,SE,3.5,,,,,140,2013-02-24 10:00:00
11:20 AM,30.2,17.6,60,29.74,5.6,Variable,3.5,-,N/A,,Scattered Clouds,0,2013-02-24 10:20:00
11:50 AM,30.2,15.8,55,29.74,5.6,WSW,4.6,-,N/A,,Scattered Clouds,240,2013-02-24 10:50:00
12:00 PM,30,14,37,29.84,,West,3.5,,,,,260,2013-02-24 11:00:00
12:20 PM,30.2,14.0,51,29.74,5.6,Variable,3.5,-,N/A,,Scattered Clouds,0,2013-02-24 11:20:00
12:50 PM,32.0,12.2,44,29.74,5.6,Variable,3.5,-,N/A,,Scattered Clouds,0,2013-02-24 11:50:00
1:00 PM,31,12,31,29.83,,West,2.3,,,,,270,2013-02-24 12:00:00
1:20 PM,32.0,10.4,41,29.74,5.6,South,3.5,-,N/A,,Scattered Clouds,190,2013-02-24 12:20:00
1:50 PM,32.0,8.6,38,29.74,5.6,Variable,3.5,-,N/A,,Scattered Clouds,0,2013-02-24 12:50:00
2:00 PM,33,11,25,29.81,,SSW,3.5,,,,,210,2013-02-24 13:00:00
2:20 PM,33.8,8.6,35,29.74,5.6,WSW,4.6,-,N/A,,Scattered Clouds,240,2013-02-24 13:20:00
2:50 PM,33.8,10.4,38,29.74,5.6,WSW,6.9,-,N/A,,Mostly Cloudy,240,2013-02-24 13:50:00
3:00 PM,35,13,26,29.80,,WSW,5.8,,,,,240,2013-02-24 14:00:00
3:20 PM,33.8,12.2,41,29.74,5.6,WSW,10.4,-,N/A,,Mostly Cloudy,240,2013-02-24 14:20:00
3:50 PM,33.8,12.2,41,29.74,5.6,WSW,12.7,-,N/A,,Mostly Cloudy,250,2013-02-24 14:50:00
4:20 PM,32.0,14.0,48,29.74,5.0,WSW,13.8,-,N/A,,Mostly Cloudy,250,2013-02-24 15:20:00
4:50 PM,32.0,14.0,48,29.74,5.0,West,13.8,-,N/A,,Mostly Cloudy,260,2013-02-24 15:50:00
5:00 PM,32,15,36,29.84,,WSW,15.0,,,,,250,2013-02-24 16:00:00
5:20 PM,32.0,15.8,51,29.77,5.0,West,15.0,-,N/A,,Mostly Cloudy,260,2013-02-24 16:20:00
5:50 PM,30.2,15.8,55,29.77,5.0,West,12.7,-,N/A,,Scattered Clouds,260,2013-02-24 16:50:00
6:00 PM,30,16,42,29.87,,WSW,13.8,,,,,250,2013-02-24 17:00:00
6:20 PM,30.2,15.8,55,29.80,3.7,West,9.2,-,N/A,,Scattered Clouds,270,2013-02-24 17:20:00
7:00 PM,29,17,48,29.91,9,WSW,12.7,,,,Overcast,250,2013-02-24 18:00:00
8:00 PM,28,16,47,29.94,,West,6.9,,,,,280,2013-02-24 19:00:00
9:00 PM,28,16,49,29.96,,West,4.6,,,,,270,2013-02-24 20:00:00
11:00 PM,28,17,50,30.00,,NNW,1.2,,,,,330,2013-02-24 22:00:00